Torna al catalogo

ARIANE 2 DEB

AttivoGTO
NORAD 33535·DEBRIS·🇫🇷 France

Lanciato May 17, 1988 da Guiana Space Centre

Loading…

TLE

In scadenzaSource: Space-Track

Epoca: Sep 14, 2026, 09:23 UTC

1 33535U 88040J   26257.39151988  .00002296  00000-0  91990-2 0  9994
2 33535   7.6560 238.0240 7076434 314.1604   5.9201  2.43357680174371

Traccia ARIANE 2 DEB in tempo reale con AllMySat

Download on the App Store